This is the latest recevied weather packets stored in our database for station/object N5SOR-1. If no packets are shown the sender has not sent any weather packets the latest 10 day(s).
| Time | Temp. | Humidity | Pressure | Rain* | Wind** | Luminosity | Snow |
|---|---|---|---|---|---|---|---|
| 1777616165 | 15° C | 74% | 1013.3 hPa | 0 mm | - | 0 W/m² | - |
| 1777615505 | 15.56° C | 73% | 1013.7 hPa | 0 mm | - | 0 W/m² | - |
| 1777614844 | 16.11° C | 70% | 1013.6 hPa | 0 mm | - | 0 W/m² | - |
| 1777614184 | 16.11° C | 68% | 1013.2 hPa | 0 mm | - | 0 W/m² | - |
| 1777613523 | 16.67° C | 68% | 1013 hPa | 0 mm | - | 0 W/m² | - |
| 1777612863 | 16.67° C | 67% | 1013.5 hPa | 0 mm | - | 0 W/m² | - |
| 1777612202 | 16.67° C | 68% | 1013.5 hPa | 0 mm | - | 0 W/m² | - |
| 1777611541 | 16.67° C | 68% | 1013.3 hPa | 0 mm | - | 0 W/m² | - |
| 1777610881 | 16.67° C | 67% | 1013.3 hPa | 0 mm | - | 0 W/m² | - |
| 1777610220 | 16.67° C | 67% | 1013.4 hPa | 0 mm | - | 0 W/m² | - |
| 1777609559 | 16.67° C | 67% | 1013.5 hPa | 0 mm | - | 0 W/m² | - |
| 1777608899 | 16.67° C | 67% | 1013.6 hPa | 0 mm | - | 0 W/m² | - |
| 1777608238 | 16.67° C | 66% | 1013.5 hPa | 0 mm | - | 0 W/m² | - |
| 1777607577 | 16.67° C | 66% | 1013.2 hPa | 0 mm | - | 0 W/m² | - |
| 1777606917 | 16.67° C | 65% | 1013 hPa | 0 mm | - | 0 W/m² | - |
| 1777606256 | 17.22° C | 65% | 1013.1 hPa | 0 mm | - | 0 W/m² | - |
| 1777605596 | 17.22° C | 64% | 1013.2 hPa | 0 mm | - | 0 W/m² | - |
| 1777604935 | 17.22° C | 64% | 1013 hPa | 0 mm | - | 0 W/m² | - |
| 1777604274 | 17.22° C | 64% | 1012.5 hPa | 0 mm | - | 0 W/m² | - |
| 1777603614 | 17.22° C | 63% | 1012.3 hPa | 0 mm | - | 0 W/m² | - |
| 1777602953 | 17.22° C | 63% | 1012.3 hPa | 0 mm | - | 0 W/m² | - |
| 1777602292 | 17.78° C | 63% | 1012.3 hPa | 0 mm | - | 0 W/m² | - |
| 1777601632 | 17.78° C | 61% | 1012.4 hPa | 0 mm | - | 0 W/m² | - |
| 1777600971 | 18.33° C | 57% | 1012.2 hPa | 0 mm | - | 0 W/m² | - |
| 1777600311 | 18.33° C | 57% | 1012.1 hPa | 0 mm | - | 0 W/m² | - |
* Rain latest hour (hover to see other rain measurements)
** Current wind speed in m/s (hover to see current wind gust speed)